Flag for Slovenia Weather past 2 weeks in Ljubljana, Slovenia

Now
60 °F

Passing clouds.


Feels Like: 60 °F
Forecast: 49 / 73 °F
Wind: 2 mph from Southwest

Location: Ljubljana / Bezigrad

Current Time: May 25, 2015 at 10:39:25 PM

Latest Report: May 25, 2015 at 10:00 PM


Visibility: 16 mi

Pressure: 29.85 "Hg

Humidity: 76%

Dew point: 53 °F

Location of LjubljanaLocation

Historic Weather in Ljubljana — Graph

°F

Ljubljana temperature yesterday

Maximum temperature yesterday: 66 °F (at 3:00 PM)
Minimum temperature yesterday: 48 °F (at 12:00 AM)
Average temperature yesterday: 57 °F

Past Weeks' High & Low Weather Summary

 TemperatureHumidityPressure
High82 °F (May 19, 3:00 PM)100% (May 24, 2:00 AM)30.38 "Hg (May 24, 2:00 AM)
Low48 °F (May 12, 6:00 AM)34% (May 12, 3:00 PM)29.68 "Hg (May 19, 6:00 PM)
Average61 °F73%30.00 "Hg
* Reported May 10 9:00 PM — May 25 9:00 PM, Ljubljana, Weather by CustomWeather, © 2015

Note: Actual official high and low records may vary slightly from our data, if they occured in-between our weather recording intervals... More about our weather records

Advertising

Ljubljana weather history for previous 24 hours

 ConditionsComfort  
Time TempWeatherWind HumidityBarometerVisibility
9:00 PM
Mon, May 25
61 °FOvercast.2 mph70%29.84 "Hg17 mi
8:00 PM63 °FOvercast.3 mph66%29.83 "Hg17 mi
7:00 PM64 °FOvercast.2 mph62%29.82 "Hg17 mi
6:00 PM65 °FOvercast.2 mph59%29.82 "Hg17 mi
5:00 PM67 °FOvercast.2 mph54%29.82 "Hg17 mi
4:00 PM68 °FOvercast.2 mph48%29.82 "Hg19 mi
3:00 PM70 °FPartly sunny.1 mph41%N/A17 mi
2:00 PM71 °FPartly sunny.2 mph42%29.84 "Hg17 mi
1:00 PM68 °FPartly sunny.2 mph45%29.85 "Hg19 mi
12:00 PM66 °FPartly sunny.1 mph50%29.87 "Hg16 mi
11:00 AM63 °FPartly sunny.No wind60%29.89 "Hg16 mi
10:00 AM58 °FFog.1 mph83%29.91 "Hg4 mi
9:00 AM55 °FFog.1 mph92%29.93 "Hg2 mi
8:00 AM54 °FFog.No wind97%29.94 "Hg1 mi
7:00 AM52 °FFog.No wind100%29.94 "Hg0 mi
6:00 AM52 °FScattered clouds.No wind97%29.95 "Hg9 mi
5:00 AM53 °FCool.1 mph97%29.95 "HgN/A
4:00 AM54 °FCool.1 mph94%29.96 "HgN/A
3:00 AM55 °FCool.No wind91%29.96 "HgN/A
2:00 AM55 °FCool.No wind89%29.96 "HgN/A
1:00 AM56 °FCool.No wind88%29.97 "HgN/A
12:00 AM56 °FCool.No wind87%29.98 "HgN/A
10:00 PM
Sun, May 24
57 °FPassing clouds.No wind84%29.98 "Hg16 mi
Weather by CustomWeather, © 2015

See weather overviewHow to use our weather pages